Shaw AFB, SC

7:51 AM EDT on September 20, 2017 (GMT -0400)
Shaw Air Force Base

Weather History for KSSC - January, 2014

Change the Weather History Date:

Sunday, January 26, 2014

  Actual Average Record
Temperature  
Mean Temperature 42 °F -  
Max Temperature 55 °F 53 °F 74 °F (2012)
Min Temperature 28 °F 33 °F 21 °F (2001)
Degree Days  
Heating Degree Days 24    
Moisture  
Dew Point 23 °F    
Average Humidity 45    
Maximum Humidity 62    
Minimum Humidity 28    
Precipitation  
Precipitation 0.00 in - - ()
Sea Level Pressure  
Sea Level Pressure 29.94 in    
Wind  
Wind Speed 10 mph (SW)    
Max Wind Speed 17 mph    
Max Gust Speed 25 mph    
Visibility 10 miles    
Events      
Averages and records for this station are not official NWS values.
T = Trace of Precipitation, MM = Missing Value Source: NWS Daily Summary

Daily Weather History Graph

Daily Weather History Graph

Search for Another Location

Airport or City:

Trip Planner

Search our weather history database for the weather conditions in past years. The results will help you decide how hot, cold, wet, or windy it might be!

Date:

Astronomy

Jan. 26, 2014 Rise Set
Actual Time 7:22 AM EST 5:46 PM EST
Civil Twilight 6:56 AM EST 6:13 PM EST
Nautical Twilight 6:25 AM EST 6:43 PM EST
Astronomical Twilight 5:56 AM EST 7:13 PM EST
Moon 2:57 AM EST (1/26) 1:35 PM EST (1/26)
Length of Visible Light 11h 17m
Length of Day
10h 23m
Waning Crescent, 24% of the Moon is Illuminated
Jan 26
Waning Crescent
Jan 30
New
Feb 6
First Quarter
Feb 14
Full
Feb 22
Last Quarter

Hourly Weather History & Observations

Time (EST) Temp. Windchill Dew Point Humidity Pressure Visibility Wind Dir Wind Speed Gust Speed Precip Events Conditions
12:58 AM 39.7 °F 31.9 °F 16.0 °F 38% 29.90 in 10.0 mi WSW 13.8 mph - N/A   Clear
1:58 AM 38.5 °F 30.7 °F 16.3 °F 41% 29.91 in 10.0 mi WSW 12.7 mph - N/A   Clear
2:58 AM 36.7 °F 29.9 °F 16.9 °F 45% 29.93 in 10.0 mi SW 9.2 mph - N/A   Clear
3:58 AM 36.3 °F 29.5 °F 17.2 °F 46% 29.94 in 10.0 mi WSW 9.2 mph - N/A   Clear
4:58 AM 34.5 °F 27.3 °F 17.8 °F 50% 29.95 in 10.0 mi SW 9.2 mph - N/A   Clear
5:58 AM 28.9 °F 22.8 °F 17.2 °F 62% 29.96 in 10.0 mi SW 5.8 mph - N/A   Clear
6:58 AM 32.4 °F 26.0 °F 19.0 °F 58% 29.98 in 10.0 mi WSW 6.9 mph - N/A   Clear
7:58 AM 33.6 °F 27.5 °F 19.9 °F 57% 29.98 in 10.0 mi West 6.9 mph - N/A   Clear
8:58 AM 38.3 °F 32.5 °F 20.5 °F 49% 29.99 in 10.0 mi WSW 8.1 mph - N/A   Clear
9:58 AM 42.6 °F 37.8 °F 21.2 °F 43% 30.00 in 10.0 mi WSW 8.1 mph - N/A   Clear
10:58 AM 47.8 °F - 21.9 °F 36% 30.00 in 10.0 mi WSW 10.4 mph - N/A   Clear
11:59 AM 52.2 °F - 21.2 °F 30% 29.98 in 10.0 mi West 11.5 mph - N/A   Clear
12:58 PM 53.8 °F - 21.0 °F 28% 29.94 in 10.0 mi WSW 10.4 mph - N/A   Clear
1:59 PM 54.9 °F - 21.7 °F 28% 29.91 in 10.0 mi SW 17.3 mph 21.9 mph N/A   Clear
2:59 PM 55.4 °F - 24.6 °F 30% 29.91 in 10.0 mi WSW 16.1 mph 25.3 mph N/A   Clear
3:58 PM 55.2 °F - 26.2 °F 33% 29.90 in 10.0 mi WSW 15.0 mph 20.7 mph N/A   Clear
4:59 PM 54.0 °F - 27.1 °F 36% 29.90 in 10.0 mi WSW 11.5 mph 17.3 mph N/A   Clear
5:58 PM 47.3 °F - 27.0 °F 45% 29.92 in 10.0 mi SSW 6.9 mph - N/A   Clear
6:58 PM 43.9 °F 39.3 °F 29.1 °F 56% 29.93 in 10.0 mi SSW 8.1 mph - N/A   Overcast
7:59 PM 45.5 °F 44.2 °F 29.1 °F 53% 29.94 in 10.0 mi South 3.5 mph - N/A   Overcast
8:59 PM 45.0 °F 41.2 °F 29.5 °F 55% 29.94 in 10.0 mi SSW 6.9 mph - N/A   Overcast
9:58 PM 43.7 °F - 29.5 °F 57% 29.94 in 10.0 mi South 2.3 mph - N/A   Mostly Cloudy
10:58 PM 44.2 °F 41.0 °F 29.8 °F 57% 29.94 in 10.0 mi SSW 5.8 mph - N/A   Partly Cloudy
11:58 PM 46.4 °F 40.7 °F 30.2 °F 53% 29.94 in 10.0 mi SSW 12.7 mph - N/A   Scattered Clouds